Watertown, WI

12:55 AM CDT on September 26, 2017 (GMT -0500)
Watertown Municipal

Weather History for KRYV - April, 2013

Change the Weather History Date:

Thursday, April 18, 2013

  Actual Average Record
Temperature  
Mean Temperature 49 °F -  
Max Temperature 59 °F 59 °F 87 °F (1977)
Min Temperature 38 °F 37 °F 23 °F (1983)
Degree Days  
Heating Degree Days 16    
Moisture  
Dew Point 45 °F    
Average Humidity 95    
Maximum Humidity 99    
Minimum Humidity 75    
Precipitation  
Precipitation 0.55 in - - ()
Sea Level Pressure  
Sea Level Pressure 29.55 in    
Wind  
Wind Speed 9 mph (ESE)    
Max Wind Speed 25 mph    
Max Gust Speed 44 mph    
Visibility 8 miles    
Events Rain    
Averages and records for this station are not official NWS values.
T = Trace of Precipitation, MM = Missing Value Source: NWS Daily Summary

Daily Weather History Graph

Daily Weather History Graph

Search for Another Location

Airport or City:

Trip Planner

Search our weather history database for the weather conditions in past years. The results will help you decide how hot, cold, wet, or windy it might be!

Date:

Astronomy

Apr. 18, 2013 Rise Set
Actual Time 6:07 AM CDT 7:41 PM CDT
Civil Twilight 5:37 AM CDT 8:11 PM CDT
Nautical Twilight 5:01 AM CDT 8:47 PM CDT
Astronomical Twilight 4:22 AM CDT 9:26 PM CDT
Moon 12:17 PM CDT (4/18) 1:58 AM CDT (4/18)
Length of Visible Light 14h 33m
Length of Day
13h 33m
First Quarter, 52% of the Moon is Illuminated
Apr 18
First Quarter
Apr 25
Full
May 2
Last Quarter
May 9
New
May 17
First Quarter

Hourly Weather History & Observations

Time (CDT) Temp. Windchill Dew Point Humidity Pressure Visibility Wind Dir Wind Speed Gust Speed Precip Events Conditions
12:15 AM 42.1 °F 37.7 °F 41.0 °F 96% 29.87 in 7.0 mi NE 6.9 mph - 0.04 in Rain Rain
12:35 AM 41.9 °F 36.9 °F 41.0 °F 97% 29.84 in 7.0 mi NE 8.1 mph - 0.08 in Rain Light Rain
12:55 AM 41.9 °F 35.4 °F 41.0 °F 97% 29.83 in 10.0 mi ENE 11.5 mph - 0.10 in Rain Light Rain
1:15 AM 41.9 °F 37.5 °F 41.0 °F 97% 29.83 in 7.0 mi East 6.9 mph - 0.02 in Rain Light Rain
1:35 AM 41.9 °F 36.3 °F 41.0 °F 97% 29.81 in 7.0 mi East 9.2 mph - 0.03 in Rain Light Rain
1:55 AM 41.9 °F 38.2 °F 41.0 °F 97% 29.79 in 7.0 mi East 5.8 mph - 0.04 in   Light Drizzle
2:15 AM 41.9 °F 37.5 °F 41.0 °F 97% 29.76 in 10.0 mi East 6.9 mph - N/A   Light Drizzle
2:35 AM 42.1 °F 34.9 °F 41.4 °F 97% 29.72 in 10.0 mi ESE 13.8 mph - 0.02 in Rain Light Rain
2:55 AM 42.1 °F 34.5 °F 41.4 °F 97% 29.69 in 10.0 mi ESE 15.0 mph 23.0 mph 0.05 in Rain Light Rain
3:15 AM 42.1 °F 34.9 °F 41.4 °F 97% 29.67 in 10.0 mi ESE 13.8 mph - 0.02 in Rain Light Rain
3:35 AM 42.4 °F 36.1 °F 41.9 °F 98% 29.67 in 10.0 mi ESE 11.5 mph 16.1 mph 0.04 in Rain Light Rain
3:55 AM 42.8 °F 35.8 °F 42.1 °F 97% 29.68 in 10.0 mi SE 13.8 mph - 0.05 in Rain Light Rain
4:15 AM 43.0 °F 36.4 °F 42.3 °F 97% 29.66 in 7.0 mi ESE 12.7 mph - 0.02 in Rain Light Rain
4:35 AM 43.0 °F 36.0 °F 42.6 °F 99% 29.63 in 10.0 mi ESE 13.8 mph 18.4 mph 0.03 in Rain Light Rain
4:55 AM 43.7 °F 36.9 °F 43.0 °F 97% 29.61 in 10.0 mi SE 13.8 mph 20.7 mph 0.04 in Rain Light Rain
5:15 AM 43.9 °F 42.3 °F 43.3 °F 98% 29.63 in 10.0 mi SE 3.5 mph - N/A   Overcast
5:35 AM 44.2 °F 41.0 °F 43.7 °F 98% 29.61 in 10.0 mi NE 5.8 mph - 0.01 in Rain Light Rain
5:55 AM 44.2 °F 40.3 °F 43.9 °F 99% 29.58 in 10.0 mi ENE 6.9 mph - 0.01 in   Overcast
6:15 AM 44.2 °F 40.3 °F 43.9 °F 99% 29.57 in 7.0 mi East 6.9 mph - N/A   Drizzle
6:35 AM 44.6 °F 39.7 °F 44.1 °F 98% 29.56 in 7.0 mi ESE 9.2 mph - 0.03 in Rain Light Rain
6:55 AM 44.6 °F 42.2 °F 44.2 °F 99% 29.59 in 7.0 mi East 4.6 mph - 0.05 in Rain Light Rain
7:15 AM 44.8 °F 39.0 °F 44.4 °F 99% 29.59 in 5.0 mi NW 11.5 mph - 0.02 in Rain Light Rain
7:35 AM 44.6 °F 40.2 °F 44.2 °F 99% 29.59 in 7.0 mi NNW 8.1 mph - 0.06 in Rain Light Rain
7:55 AM 44.2 °F 39.2 °F 43.7 °F 98% 29.59 in 7.0 mi NNW 9.2 mph - 0.09 in Rain Light Rain
8:15 AM 43.7 °F 41.1 °F 43.2 °F 98% 29.60 in 5.0 mi North 4.6 mph - 0.04 in Rain Rain
8:35 AM 43.7 °F 42.1 °F 43.0 °F 97% 29.58 in 5.0 mi North 3.5 mph - 0.07 in Rain Light Rain
8:55 AM 43.2 °F 40.5 °F 42.8 °F 99% 29.58 in 7.0 mi North 4.6 mph - 0.08 in Rain Light Rain
9:15 AM 43.3 °F 39.9 °F 42.8 °F 98% 29.56 in 7.0 mi North 5.8 mph - N/A Rain Light Rain
9:55 AM 44.2 °F 42.7 °F 43.7 °F 98% 29.58 in 10.0 mi North 3.5 mph - 0.01 in   Overcast
10:15 AM 44.4 °F 41.2 °F 43.7 °F 97% 29.61 in 10.0 mi WNW 5.8 mph - N/A   Overcast
10:55 AM 45.0 °F - 44.1 °F 97% 29.54 in 7.0 mi Calm Calm - N/A   Overcast
11:15 AM 45.5 °F - 44.2 °F 95% 29.54 in 7.0 mi Calm Calm - N/A   Overcast
11:35 AM 46.2 °F - 44.8 °F 95% 29.55 in 10.0 mi Calm Calm - N/A   Overcast
11:55 AM 47.1 °F - 45.3 °F 93% 29.56 in 10.0 mi Calm Calm - N/A   Overcast
12:15 PM 48.2 °F - 46.4 °F 93% 29.55 in 10.0 mi Calm Calm - N/A   Overcast
12:35 PM 49.1 °F - 47.5 °F 94% 29.52 in 10.0 mi Calm Calm - N/A   Overcast
12:55 PM 50.0 °F - 48.2 °F 94% 29.51 in 10.0 mi SSE 3.5 mph - N/A   Overcast
1:15 PM 51.3 °F - 49.3 °F 93% 29.50 in 10.0 mi ESE 5.8 mph - N/A   Overcast
1:35 PM 51.1 °F - 49.1 °F 93% 29.52 in 10.0 mi Calm Calm - N/A   Overcast
1:55 PM 52.0 °F - 50.0 °F 93% 29.48 in 10.0 mi ENE 4.6 mph - N/A   Overcast
2:15 PM 51.8 °F - 49.6 °F 92% 29.51 in 10.0 mi NW 3.5 mph - N/A   Overcast
2:35 PM 52.0 °F - 50.0 °F 93% 29.47 in 10.0 mi East 5.8 mph - N/A   Overcast
2:55 PM 52.3 °F - 50.9 °F 95% 29.46 in 5.0 mi ESE 5.8 mph - N/A   Overcast
3:15 PM 52.9 °F - 51.3 °F 94% 29.48 in 10.0 mi ESE 6.9 mph - N/A   Overcast
3:35 PM 52.9 °F - 51.8 °F 96% 29.48 in 7.0 mi ESE 5.8 mph - N/A   Overcast
3:55 PM 53.4 °F - 52.0 °F 95% 29.44 in 7.0 mi ESE 6.9 mph - N/A   Overcast
4:15 PM 53.2 °F - 52.2 °F 96% 29.43 in 5.0 mi ESE 6.9 mph - N/A   Overcast
4:35 PM 53.1 °F - 52.2 °F 97% 29.41 in 4.0 mi East 5.8 mph - N/A   Overcast
5:15 PM 53.6 °F - 52.7 °F 97% 29.41 in 4.0 mi SE 5.8 mph - N/A   Overcast
5:35 PM 52.5 °F - 51.4 °F 96% 29.39 in 3.0 mi East 9.2 mph - N/A   Overcast
5:55 PM 52.7 °F - 52.0 °F 97% 29.38 in 4.0 mi ESE 9.2 mph - N/A   Overcast
6:15 PM 53.6 °F - 52.7 °F 97% 29.37 in 2.5 mi ESE 6.9 mph - 0.01 in   Drizzle
6:35 PM 57.2 °F - 57.0 °F 99% 29.34 in 3.0 mi SSE 10.4 mph 16.1 mph 0.01 in   Overcast
6:55 PM 58.8 °F - 57.2 °F 94% 29.34 in 10.0 mi SSE 12.7 mph 18.4 mph 0.01 in   Overcast
7:15 PM 59.0 °F - 57.4 °F 94% 29.34 in 4.0 mi South 13.8 mph 24.2 mph N/A Rain Light Rain
7:35 PM 58.3 °F - 56.7 °F 94% 29.34 in 4.0 mi SW 21.9 mph 29.9 mph 0.02 in Rain Rain
7:55 PM 51.6 °F - 49.3 °F 92% 29.36 in 10.0 mi SW 23.0 mph 34.5 mph 0.02 in   Overcast
8:15 PM 49.1 °F - 47.3 °F 93% 29.39 in 10.0 mi SW 25.3 mph 32.2 mph N/A   Overcast
8:35 PM 46.4 °F 38.1 °F 42.8 °F 87% 29.41 in 10.0 mi SW 24.2 mph 43.7 mph N/A   Overcast
10:15 PM 41.9 °F 32.6 °F 36.5 °F 81% 29.41 in 10.0 mi SW 21.9 mph 33.4 mph N/A   Overcast
10:35 PM 40.8 °F 32.0 °F 33.8 °F 76% 29.41 in 10.0 mi SW 18.4 mph 32.2 mph N/A   Overcast
10:55 PM 40.1 °F 30.2 °F 32.9 °F 75% 29.42 in 10.0 mi SW 21.9 mph 28.8 mph N/A   Overcast
11:15 PM 39.4 °F 29.5 °F 33.1 °F 78% 29.42 in 10.0 mi SW 20.7 mph 31.1 mph N/A   Overcast
11:35 PM 38.8 °F 28.5 °F 33.6 °F 82% 29.41 in 10.0 mi SW 21.9 mph 32.2 mph N/A   Overcast